Date,TemperatureHighF,TemperatureAvgF,TemperatureLowF,DewpointHighF,DewpointAvgF,DewpointLowF,HumidityHigh,HumidityAvg,HumidityLow,PressureMaxIn,PressureMinIn,WindSpeedMaxMPH,WindSpeedAvgMPH,GustSpeedMaxMPH,PrecipitationSumIn
2013-9-1,84.2,63.8,44.6,58.4,45.2,34.6,98,61,18,29.89,29.72,4,1,0,0.37
2013-9-2,68.0,60.1,57.2,58.4,57.1,52.7,98,91,58,29.92,29.77,5,2,0,0.39
2013-9-3,77.0,59.0,51.8,62.6,55.5,51.3,98,90,56,29.97,29.84,3,0,0,1.29
2013-9-4,80.6,61.1,50.0,62.5,54.7,49.5,98,82,38,30.05,29.95,0,0,0,0.01
2013-9-5,77.0,60.4,44.6,54.2,49.2,44.1,98,71,39,30.09,29.96,0,0,0,0.00
2013-9-6,71.6,58.8,50.0,56.6,50.9,45.0,98,76,58,30.02,29.95,0,0,0,0.01
2013-9-7,77.0,60.5,50.0,55.3,51.2,46.6,98,75,38,30.08,29.96,0,0,0,0.05
2013-9-8,82.4,61.5,46.4,53.6,49.1,45.9,98,70,29,30.13,29.87,0,0,0,0.00
2013-9-9,77.0,60.0,46.4,49.4,45.4,40.4,88,62,30,30.01,29.91,0,0,0,0.00
2013-9-10,51.8,42.2,37.4,46.2,40.5,36.9,98,94,81,30.08,29.99,0,0,0,0.00
2013-9-11,78.8,67.2,59.0,51.2,49.5,46.7,68,54,38,30.02,30.00,0,0,0,0.00
2013-9-12,89.6,67.7,50.0,56.6,49.2,43.0,98,58,20,30.02,29.85,0,0,0,0.00
2013-9-13,86.0,64.5,44.6,53.1,46.8,42.1,98,59,22,29.93,29.83,0,0,0,0.00
2013-9-14,86.0,62.4,42.8,51.5,43.3,29.4,98,60,13,29.91,29.79,0,0,0,0.00
2013-9-15,87.8,67.5,50.0,56.3,48.2,42.9,84,55,24,29.81,29.56,0,0,0,0.01
2013-9-16,60.8,53.8,46.4,58.4,53.0,45.9,98,97,85,29.74,29.53,0,0,0,0.00
2013-9-17,59.0,49.0,41.0,49.2,45.6,40.1,98,89,62,29.77,29.70,0,0,0,0.01
2013-9-18,62.6,47.3,35.6,47.3,39.8,35.1,98,79,42,29.89,29.74,2,0,0,0.01
2013-9-19,66.2,51.5,39.2,43.8,40.7,37.1,98,70,41,29.91,29.71,7,2,0,0.00
2013-9-20,69.8,56.8,44.6,47.6,42.1,38.2,80,59,40,29.71,29.42,7,2,0,0.00
2013-9-21,60.8,52.8,44.6,50.7,44.6,37.8,90,74,58,29.47,29.40,4,1,0,0.19
2013-9-22,53.6,46.8,41.0,43.8,39.9,35.9,86,77,65,29.43,29.29,7,2,0,0.00
2013-9-23,55.4,45.0,37.4,45.0,38.2,33.6,90,77,53,29.72,29.38,8,2,0,0.21
2013-9-24,57.2,41.5,32.0,37.5,33.1,26.0,98,76,32,29.79,29.67,4,1,0,0.01
2013-9-25,57.2,40.4,30.2,37.9,31.8,29.2,98,75,38,29.96,29.80,8,1,0,0.00
2013-9-26,55.4,39.9,28.4,39.5,32.4,27.9,98,77,42,30.03,29.81,5,1,0,0.00
2013-9-27,46.4,41.4,37.4,44.1,38.7,31.3,98,90,68,29.80,29.54,3,1,0,1.81
2013-9-28,51.8,45.4,41.0,43.4,39.6,36.5,98,81,67,29.54,28.97,8,3,0,0.00
2013-9-29,57.2,46.7,41.0,42.3,37.2,34.4,98,71,50,29.20,28.97,6,3,0,0.18
2013-9-30,53.6,44.4,37.4,40.5,35.9,32.4,98,74,50,29.51,28.94,6,2,0,0.01